Regional Weather Roundup
Issued by NWS

Home | Current Version | Previous Version | Text Only | Print | Product List | Glossary Off
Versions: 1 2 3 4 5 6 7 8 9 10 11 12 13 14 15 16 17 18 19 20 21 22 23 24 25 26 27 28 29 30 31 32 33 34 35 36 37 38 39 40 41 42 43 44 45 46 47 48 49 50

000
ASUS45 KBOU 020010
RWRCO

WEATHER ROUNDUP FOR COLORADO
NATIONAL WEATHER SERVICE DENVER/BOULDER CO
600 PM MDT WED JUL 01 2015

NOTE: "FAIR" INDICATES FEW OR NO CLOUDS BELOW 12000 FEET WITH NO
SIGNIFICANT WEATHER AND/OR OBSTRUCTIONS TO VISIBILITY.

COZ001>005-013-030-031-020100-
...NORTHWEST COLORADO...

CITY           SKY/WX    TMP DP  RH WIND       PRES   REMARKS
CRAIG          PTSUNNY   86  45  23 CALM      30.14F
HAYDEN         MOSUNNY   82  46  28 E9        30.17F
MEEKER         PTSUNNY   86  49  27 MISG      30.16F
MOUNT WERNER   NOT AVBL
STEAMBOAT SPGS MOSUNNY   79  47  32 CALM      30.21F
WALDEN         PTSUNNY   70  43  37 CALM      30.33F
$$

COZ006>008-011-020100-
...WEST CENTRAL VALLEYS...

CITY           SKY/WX    TMP DP  RH WIND       PRES   REMARKS
GRAND JUNCTION PTSUNNY   93  49  22 NW14      29.97F
MONTROSE       MOSUNNY   93  44  18 W7        30.07F
EAGLE          PTSUNNY   84  45  24 E8        30.18F
RIFLE          MOSUNNY   92  47  21 W6        30.04F
DELTA          MOSUNNY  100  41  13 N8        30.01F
NUCLA          MOSUNNY   91  43  18 E7        30.10F
$$

COZ017>023-064>068-020100-
...SOUTHWEST COLORADO...

CITY           SKY/WX    TMP DP  RH WIND       PRES   REMARKS
DURANGO        CLOUDY    83  51  33 NE13      30.12F
CORTEZ         LGT RAIN  87  52  29 N8        30.05F
PAGOSA SPRINGS CLOUDY    67  47  48 N7        30.26F
TELLURIDE      CLOUDY    79  41  26 N5        30.39F
WOLF CREEK PAS NOT AVBL
$$

COZ009-010-012-014-032>034-037-058>063-020100-
...CENTRAL COLORADO...

CITY           SKY/WX    TMP DP  RH WIND       PRES   REMARKS
ASPEN          MOSUNNY   82  43  25 VRB7      30.26F
BUENA VISTA    CLOUDY    70  52  53 NE9G16    30.34R
COPPER MTN     MOSUNNY   61  37  41 W12       30.66S
BERTHOUD PASS  CLOUDY    46  37  71 MISG      30.71S
COTTONWOOD PAS NOT AVBL
GUNNISON       PTSUNNY   81  45  28 N6        30.28S
KREMMLING      MOSUNNY   79  37  22 CALM      30.27F
LEADVILLE      PTSUNNY   69  40  34 NW6       30.45F
MONARCH PASS   CLOUDY    54  45  71 E23       30.74F
SALIDA         CLOUDY    76  52  42 E8G17     30.37R
SUNLIGHT       MOSUNNY   70  43  37 CALM      30.56S
WILKERSON PASS CLOUDY    50  46  87 SE8       30.64F
$$

COZ069>075-020100-
...SAN LUIS VALLEY/SANGRE DE CRISTO MOUNTAINS...

CITY           SKY/WX    TMP DP  RH WIND       PRES   REMARKS
ALAMOSA        TSTM      62  54  74 N20G32    30.30R
LA VETA PASS   CLOUDY    61  45  55 MISG      30.51S THUNDER
SAGUACHE       DRIZZLE   64  55  72 SW18      30.32R
$$

COZ035-036-038>040-020100-
...NORTHERN COLORADO FRONT RANGE...

CITY           SKY/WX    TMP DP  RH WIND       PRES   REMARKS
DENVER INTL AP PTSUNNY   77  58  51 E15       30.18R
DMNS CITY PARK   N/A     77  56  46 S7G14     30.17S
AURORA         PTSUNNY   74  60  61 SE10      30.21R
FRONT RANGE AP PTSUNNY   68  63  83 SE12      30.19S
ERIE MUNI ARPT PTSUNNY   76  53  43 CALM      30.13F
BOULDER MUN AP PTSUNNY   75  54  46 CALM      30.15R
CENTENNIAL     CLOUDY    73  57  57 SW17      30.20S
BROOMFIELD     PTSUNNY   77  55  47 N8        30.19R
FORT COLLINS   PTSUNNY   77  55  47 W7        30.12F
LONGMONT       PTSUNNY   77  57  50 CALM      30.14F
$$

COZ041-046-047-076>085-087-088-020100-
...PIKES PEAK/PALMER DIVIDE AND SOUTHERN FOOTHILLS...

CITY           SKY/WX    TMP DP  RH WIND       PRES   REMARKS
COLO. SPRINGS  TSTM      64  60  87 NW9       30.29R FOG
A. F. ACADEMY  LGT RAIN  63  61  94 SW7       30.30F
ELLICOTT       TSTM     N/A N/A N/A N23G30    30.26R
FALCON         CLOUDY    61  56  84 NE7       30.32S
FORT CARSON    TSTM      64  59  82 N18G28    30.23R
LIMON          CLOUDY    75  57  53 SW7       30.13R
MONUMENT HILL  CLOUDY    61  54  77 S10       30.31S THUNDER
TRINIDAD       CLOUDY    86  49  27 E5        30.12F
$$

COZ042>045-048>051-090-091-020100-
...NORTHEAST COLORADO...

CITY           SKY/WX    TMP DP  RH WIND       PRES   REMARKS
GREELEY ARPT   CLOUDY    75  61  60 SE7       30.09F
AKRON          CLOUDY    81  54  39 N9        30.07R
BURLINGTON     MOSUNNY   92  45  19 E9        30.01F
WRAY           SUNNY     92  52  25 NE12      29.98R
STERLING       CLOUDY    88  54  31 CALM        N/A
HOLYOKE        SUNNY     95  55  26 E5        29.98S
FORT MORGAN    CLOUDY    67  59  75 W21G26    30.11R
$$

COZ086-089-092>099-020100-
...SOUTHEAST COLORADO...

CITY           SKY/WX    TMP DP  RH WIND       PRES   REMARKS
PUEBLO         TSTM      78  60  53 N36G46    30.06R
LA JUNTA       PTSUNNY   93  51  23 E7        29.99F
LAMAR          MOSUNNY   93  55  27 E8        29.94S
SPRINGFIELD      N/A     91  47  21 E12       29.99F
$$


USA.gov is the U.S. government's official web portal to all federal, state and local government web resources and services.